Miscellaneous Local Product
Issued by NWS North Platte, NE

Home | Current Version | Previous Version | Text Only | Print | Product List | Glossary On
Versions: 1 2 3 4 5 6 7 8 9 10 11 12 13 14 15 16 17 18 19 20 21 22 23 24 25 26 27 28 29 30 31 32 33 34 35 36 37 38 39 40 41 42 43 44 45 46 47 48 49 50
995
AXUS43 KLBF 161610
MISLBF


WESTERN AND NORTH CENTRAL NEBRASKA HOURLY WEATHER ROUNDUP
NATIONAL WEATHER SERVICE NORTH PLATTE NE
1000 AM CST MON JAN 16 2017

NOTE: "FAIR" INDICATES FEW OR NO CLOUDS BELOW 12,000 FEET WITH NO
SIGNIFICANT WEATHER AND/OR OBSTRUCTIONS TO VISIBILITY.

NOTE: STATIONS NOT REPORTING VARIABLES SUCH AS SKY/WEATHER OR
PRESSURE ARE PROVIDED BY RAWS AND APRS NETWORKS AND ARE NOT UNDER
NATIONAL WEATHER SERVICE QUALITY CONTROL.

...OBSERVATIONS IN AND NEAR THE EASTERN PANHANDLE OF NEBRASKA...

CITY           SKY/WX    TMP DP  RH WIND       PRES   REMARKS
PINE RIDGE     CLOUDY    16  14  92 CALM      30.09S
CHADRON        CLOUDY    27  17  66 NW7       30.11S WCI  19
ALLIANCE       CLOUDY    31  18  58 N14       30.03S WCI  21
SIDNEY         CLOUDY    33  24  69 N16       30.01R WCI  23
CRESCENT LAKE    N/A     30  25  80 N14G22      N/A  WCI  19
$$

...OBSERVATIONS IN NORTHERN NEBRASKA AND FAR SOUTHERN SOUTH DAKOTA...

CITY           SKY/WX    TMP DP  RH WIND       PRES   REMARKS
WINNER         CLOUDY    23  17  78 NW7       30.08S WCI  15
VALENTINE      CLOUDY    30  20  66 N9        30.05R WCI  22
THEDFORD       CLOUDY    32  31  94 N7        30.01R WCI  26
AINSWORTH      CLOUDY    28  26  91 N13       30.03S WCI  17
O`NEILL        CLOUDY    31  31  96 N8        30.02S FOG     WCI  24
ORD            MIX PCPN  32  30  92 N10       29.97R FOG     WCI  24
BROKEN BOW     LGT RAIN  34  32  92 N16       29.96R FOG     WCI  24
VALENTINE NWR    N/A     29  25  84 N9          N/A  WCI  21
BUTTE            N/A     25  20  80 N12G18      N/A  WCI  14
HALSEY           N/A     31  32 100 NW6G13      N/A  WCI  25
SARGENT          N/A     32  23  69 CALM        N/A
CHAMBERS         N/A     32  31  95 S5          N/A  WCI  27
EWING            N/A     31  30  96 NE3         N/A
$$

...OBSERVATIONS IN SOUTHWEST NEBRASKA AND FAR NORTHEAST COLORADO...

CITY           SKY/WX    TMP DP  RH WIND       PRES   REMARKS
WRAY           LGT SNOW N/A N/A N/A N14G21    29.94R
HOLYOKE        LGT SNOW  34  32  93 N16G22    29.98R WCI  23
IMPERIAL       LGT RAIN  33  31  92 N18       29.95R FOG     WCI  22
OGALLALA       LGT SNOW  35  33  94 N13       29.99R WCI  26
NORTH PLATTE   LGT RAIN  33  31  92 N7        29.96R FOG     WCI  27
MCCOOK         LGT RAIN  33  32  96 N10       29.93R FOG     WCI  25
LEXINGTON      LGT RAIN  33  32  96 N8        29.94R WCI  26
STAPLETON        N/A     32  31  96 CALM        N/A
GOTHENBURG       N/A     33  31  93 CALM        N/A
CALLAWAY         N/A     32  31  96 N3          N/A
$$

...OBSERVATIONS IN CENTRAL LINCOLN COUNTY AREA...

CITY           SKY/WX    TMP DP  RH WIND       PRES   REMARKS
N.P. AIRPORT   LGT RAIN  33  31  92 N7        29.96R FOG     WCI  27
N.P. DOWNTOWN    N/A     32  28  84 N3          N/A
N.P. SOUTHEAST   N/A     32  31  97 S3          N/A
N.P. HILLCREST   N/A     33  32  97 N10         N/A  WCI  25
$$

...SOME OBSERVATIONS FROM AROUND THE REGION...

CITY           SKY/WX    TMP DP  RH WIND       PRES   REMARKS
LARAMIE        CLOUDY    20  17  88 W3        30.07R
CHEYENNE       CLOUDY    31  14  49 N9        30.05R WCI  23
DENVER         LGT SNOW  29  27  92 NW20      30.06R VSB 3/4 WCI  16
AKRON          LGT SNOW  29  26  89 N18       29.99R VSB 3/4 WCI  16
SCOTTSBLUFF    CLOUDY    36  18  48 NW10      30.07R WCI  28
RAPID CITY     CLOUDY    27  12  53 NW14      30.08S WCI  16
BISMARCK       CLOUDY     1  -6  72 CALM      30.09S
PIERRE         CLOUDY     7   2  80 W8        30.08F WCI  -6
SIOUX FALLS    CLOUDY    26  21  81 NE6       30.07S WCI  19
OMAHA          LGT RAIN  33  29  85 NE6       29.98F FOG     WCI  28
GRAND ISLAND     N/A    N/A N/A N/A MISG      29.94S
KANSAS CITY    FOG       38  36  92 E13       29.90R VSB 1/8 WCI  30
WICHITA        LGT RAIN  37  37 100 S14       29.86R FOG     WCI  28
OKLAHOMA CITY  CLOUDY    42  39  89 SW15      29.95R
DALLAS         MOSUNNY   51  48  89 W6        30.01R
DODGE CITY     CLOUDY    32  31  96 N15       29.86R FOG     WCI  22
HAYS           CLOUDY    32  31  96 N12       29.87R WCI  23
GOODLAND       LGT SNOW  31  31 100 N18       29.91R FOG     WCI  19
$$




USA.gov is the U.S. government's official web portal to all federal, state and local government web resources and services.